Location: Hradec Kralove
(50.2170°N, 15.8330°E)
Time: 10:47:04
(UTC+01:00)

ISS - Pass Details

Date: 23 February 2026
Orbit: 416 x 426 km, 51.6° (Epoch: 10 March)

Event Time Altitude Azimuth Distance (km) Brightness Sun altitude
Exits shadow 05:49:06 17° 284° (WNW) 1,150 -2.2 -10.9°
Maximum altitude 05:51:35 70° 6° (N) 448 -3.6 -10.5°
Drops below altitude 10° 05:54:55 10° 91° (E) 1,493 0.7 -9.9°
Sets 05:57:01 0° 94° (E) 2,355 2.5 -9.6°
